This demonstration page uses our WeatherBlox Daily Observations layout. Learn more.

39.92423, -83.80882

Hourly Observations for July 26, 2018

Temp ( °F °C ) Dew Point ( °F °C ) Humidity (%) Winds ( mph kmh ) Pressure ( in mb ) Visibility ( mi km ) Precip ( " mm )
12:56 am 00:56 Clear 65 18.3 64 17.8 97 97 WSW 5 7 29.96 1014 10 16.0934 0 0
1:56 am 01:56 Clear 65 18.3 64 17.8 97 97 W 5 7 29.96 1014 10 16.0934 0 0
2:56 am 02:56 Clear 64 17.8 64 17.8 100 100 Calm 29.94 1014 10 16.0934 0 0
3:56 am 03:56 Clear 63 17.2 63 17.2 100 100 SW 3 6 29.94 1014 10 16.0934 0 0
4:56 am 04:56 Clear 60 15.6 60 15.6 100 100 SW 5 7 29.94 1014 7 11.26538 0 0
5:45 am 05:45 Mostly Clear with Mist and Fog 61 16 61 16 100 100 Calm 29.97 1015 2.5 4.02335 0 0
5:52 am 05:52 Clear 61 16 61 16 100 100 Calm 29.97 1015 8 12.87472 0 0
5:56 am 05:56 Clear 61 16.1 61 16.1 100 100 SSW 3 6 29.95 1014 8 12.87472 0 0
6:26 am 06:26 Mostly Clear with Mist and Fog 59 15 59 15 100 100 SW 3 6 29.97 1015 2 3.21868 0 0
6:56 am 06:56 Partly Cloudy with Mist and Fog 61 16.1 61 16.1 100 100 SW 3 6 29.96 1014 2.5 4.02335 0 0
7:04 am 07:04 Partly Cloudy with Mist and Fog 61 16 61 16 100 100 Calm 29.97 1015 3 4.82802 0 0
7:56 am 07:56 Partly Cloudy with Mist and Fog 63 17.2 63 17.2 100 100 SW 5 7 29.96 1015 6 9.65604 0 0
8:56 am 08:56 Sunny 70 21.1 67 19.4 90 90 SW 6 9 29.97 1015 10 16.0934 0 0
9:56 am 09:56 Sunny 74 23.3 67 19.4 79 79 SW 8 13 29.96 1015 10 16.0934 0 0
10:56 am 10:56 Sunny 77 25 68 20 74 74 S 5 7 29.97 1015 10 16.0934 0 0
11:56 am 11:56 Sunny 81 27.2 65 18.3 58 58 W 14 22 29.96 1015 10 16.0934 0 0
2:56 pm 14:56 Sunny 83 28.3 64 17.8 53 53 W 14 22 29.94 1014 10 16.0934 0 0
3:56 pm 15:56 Sunny 82 27.8 66 18.9 58 58 WSW 12 19 29.93 1014 10 16.0934 0 0
4:56 pm 16:56 Sunny 82 27.8 66 18.9 58 58 WSW 10 17 29.92 1013 10 16.0934 0 0
5:56 pm 17:56 Sunny 81 27.2 67 19.4 62 62 WSW 13 20 29.92 1013 10 16.0934 0 0
6:56 pm 18:56 Sunny 79 26.1 65 18.3 62 62 WSW 9 15 29.92 1013 10 16.0934 0 0
7:56 pm 19:56 Sunny 77 25 66 18.9 69 69 WSW 8 13 29.93 1013 10 16.0934 0 0
8:56 pm 20:56 Clear 74 23.3 66 18.9 76 76 WSW 8 13 29.93 1014 10 16.0934 0 0
9:56 pm 21:56 Clear 74 23.3 66 18.9 76 76 W 8 13 29.94 1014 10 16.0934 0 0
10:56 pm 22:56 Mostly Clear with Light Rain 72 22.2 69 20.6 91 91 WNW 13 20 29.97 1015 10 16.0934 0 0.0254
11:56 pm 23:56 Clear 68 20 68 20 100 100 WSW 7 11 29.95 1014 10 16.0934 0 0.0254

Powered by AerisWeather